| time (UTC) | temp C | wind direction | speed KPH | gust KPH | rain 1hr cm | rain 24hr cm | rain mn cm | humidity % | barometer mb |
| 20260504081525 | 17 | 125 | 6.4 | 25.7 | 0.00 | 0.20 | 0.15 | 52 | 1017.7 |
| 20260504044546 | 13 | 337 | 1.6 | 9.7 | 0.00 | 0.18 | 0.10 | 65 | 1016.3 |
| 20260504043044 | 13 | 124 | 3.2 | 11.3 | 0.00 | 0.18 | 0.10 | 64 | 1016.2 |
| 20260504041545 | 13 | 19 | 3.2 | 9.7 | 0.00 | 0.18 | 0.10 | 65 | 1016.1 |
| 20260504040041 | 13 | 309 | 3.2 | 11.3 | 0.00 | 0.18 | 0.10 | 67 | 1015.8 |
| 20260504034541 | 13 | 338 | 3.2 | 9.7 | 0.00 | 0.18 | 0.10 | 68 | 1015.7 |
| 20260504033035 | 13 | 278 | 1.6 | 12.9 | 0.00 | 0.18 | 0.10 | 67 | 1015.6 |
| 20260504031536 | 13 | 327 | 1.6 | 11.3 | 0.00 | 0.18 | 0.10 | 67 | 1015.5 |
| 20260504030041 | 13 | 11 | 0.0 | 6.4 | 0.00 | 0.18 | 0.10 | 66 | 1015.4 |
| 20260504024534 | 13 | 44 | 3.2 | 11.3 | 0.00 | 0.20 | 0.10 | 66 | 1015.4 |
| 20260504023033 | 13 | 355 | 1.6 | 19.3 | 0.00 | 0.20 | 0.10 | 65 | 1015.3 |
| 20260504021535 | 13 | 91 | 3.2 | 0.0 | 0.00 | 0.00 | 0.10 | 66 | 1015.4 |
| 20260504020036 | 13 | 354 | 1.6 | 14.5 | 0.00 | 0.20 | 0.10 | 65 | 1015.3 |
| 20260504014536 | 13 | 13 | 3.2 | 16.1 | 0.00 | 0.23 | 0.10 | 64 | 1015.3 |
| 20260504013033 | 13 | 349 | 4.8 | 12.9 | 0.00 | 0.23 | 0.10 | 64 | 1015.5 |
| 20260504011529 | 13 | 343 | 0.0 | 17.7 | 0.00 | 0.23 | 0.10 | 65 | 1015.4 |
| 20260504010029 | 13 | 294 | 1.6 | 19.3 | 0.00 | 0.23 | 0.10 | 64 | 1015.4 |
| 20260504004529 | 13 | 117 | 3.2 | 17.7 | 0.00 | 0.23 | 0.10 | 64 | 1015.3 |
| 20260504003025 | 13 | 283 | 4.8 | 16.1 | 0.00 | 0.23 | 0.10 | 65 | 1015.1 |
| 20260504001525 | 13 | 329 | 0.0 | 16.1 | 0.00 | 0.23 | 0.10 | 67 | 1015.1 |
| 20260504000022 | 13 | 248 | 1.6 | 14.5 | 0.00 | 0.23 | 0.10 | 65 | 1015.2 |
| 20260503234535 | 13 | 342 | 1.6 | 14.5 | 0.00 | 0.23 | 0.10 | 65 | 1015.1 |
| 20260503233021 | 13 | 283 | 1.6 | 19.3 | 0.00 | 0.23 | 0.10 | 66 | 1015.2 |
| 20260503231519 | 13 | 161 | 3.2 | 19.3 | 0.00 | 0.23 | 0.10 | 67 | 1015.2 |
| 20260503230022 | 13 | 318 | 1.6 | 16.1 | 0.00 | 0.23 | 0.10 | 67 | 1015.3 |
| 20260503224517 | 13 | 308 | 1.6 | 12.9 | 0.00 | 0.25 | 0.10 | 68 | 1015.3 |
| 20260503223017 | 12 | 259 | 4.8 | 16.1 | 0.00 | 0.25 | 0.10 | 69 | 1015.2 |
| 20260503221519 | 12 | 280 | 4.8 | 16.1 | 0.00 | 0.25 | 0.10 | 72 | 1015.3 |
| 20260503220035 | 12 | 39 | 1.6 | 9.7 | 0.10 | 0.25 | 0.10 | 75 | 1015.4 |
| 20260503214514 | 11 | 16 | 1.6 | 11.3 | 0.10 | 0.38 | 0.10 | 79 | 1015.4 |
| 20260503213014 | 11 | 267 | 1.6 | 20.9 | 0.13 | 0.38 | 0.10 | 80 | 1015.3 |
| 20260503211510 | 11 | 321 | 1.6 | 29.0 | 0.13 | 0.38 | 0.10 | 76 | 1015.3 |
| 20260503210007 | 13 | 136 | 0.0 | 14.5 | 0.03 | 0.28 | 0.28 | 68 | 1015.2 |
| 20260503204506 | 13 | 96 | 1.6 | 19.3 | 0.03 | 0.28 | 0.28 | 70 | 1015.0 |
| 20260503203010 | 13 | 302 | 6.4 | 20.9 | 0.00 | 0.25 | 0.25 | 64 | 1014.9 |
| 20260503201503 | 13 | 68 | 6.4 | 17.7 | 0.00 | 0.25 | 0.25 | 65 | 1014.8 |
| 20260503200002 | 13 | 246 | 3.2 | 17.7 | 0.00 | 0.25 | 0.25 | 65 | 1014.7 |
| 20260503194502 | 13 | 177 | 3.2 | 16.1 | 0.00 | 0.25 | 0.25 | 64 | 1014.6 |
| 20260503193000 | 13 | 321 | 3.2 | 17.7 | 0.00 | 0.25 | 0.25 | 64 | 1014.7 |
| 20260503191609 | 13 | 251 | 6.4 | 17.7 | 0.00 | 0.25 | 0.25 | 62 | 1014.8 |
| 20260503190100 | 13 | 282 | 4.8 | 24.1 | 0.00 | 0.25 | 0.25 | 63 | 1014.7 |
| 20260503184610 | 13 | 269 | 3.2 | 17.7 | 0.00 | 0.25 | 0.25 | 60 | 1014.5 |
| 20260503183109 | 13 | 63 | 1.6 | 25.7 | 0.00 | 0.25 | 0.25 | 60 | 1014.5 |
| 20260503181609 | 13 | 290 | 4.8 | 22.5 | 0.00 | 0.25 | 0.25 | 61 | 1014.5 |
| 20260503180056 | 12 | 256 | 0.0 | 9.7 | 0.00 | 0.25 | 0.25 | 68 | 1014.4 |
| 20260503174555 | 12 | 275 | 0.0 | 17.7 | 0.00 | 0.25 | 0.25 | 67 | 1014.4 |
| 20260503173100 | 12 | 92 | 0.0 | 9.7 | 0.00 | 0.25 | 0.25 | 68 | 1014.4 |
| 20260503171553 | 12 | 335 | 0.0 | 24.1 | 0.03 | 0.25 | 0.25 | 71 | 1014.4 |